Location: Marcé
(47.5801°N, 0.3280°W)
Time: 08:17:49
(UTC+01:00)

Vanguard 3 - Pass Details

Date: 07 December 2021
Orbit: 508 x 3260 km, 33.3° (Epoch: 24 January)

Event Time Altitude Azimuth Distance (km) Brightness Sun altitude
Rises 10:26:21 0° 276° (W) 6,883 11.5 12.4°
Reaches altitude 10° 10:33:48 10° 259° (W) 5,409 11.2 13.1°
Maximum altitude 10:41:36 16° 229° (SW) 4,254 11.0 13.8°
Drops below altitude 10° 10:47:48 10° 196° (SSW) 4,111 11.5 14.3°
Sets 10:52:14 0° 175° (S) 4,587 12.3 14.7°
